Location: Old Bennington
(42.8834°N, 73.2134°W)
Time: 15:03:16
(UTC+00:00)

Daily predictions for brighter satellites

Satellite Brightness Start Highest point End
(mag) Time Altitude Azimuth Time Altitude Azimuth Time Altitude Azimuth
SJ-6F 4.3 22:51:47 10° SSE 22:55:42 82° ENE 22:59:38 10° N
SL-16 R/B 2.8 22:51:01 10° N 22:56:13 36° ENE 23:01:23 10° ESE
PSLV R/B 4.2 22:58:57 10° SE 23:02:34 31° ENE 23:06:11 10° N
SAR-Lupe-4 3.5 23:01:12 10° SSE 23:04:44 73° ENE 23:08:19 10° N
Meteor 1-27 4.3 23:00:20 10° N 23:06:11 80° E 23:12:01 10° SSE
NOSS 3-4 (A) 4.0 22:59:15 10° NW 23:06:13 86° SW 23:14:24 10° SSE
CARTOSAT-1 4.1 23:02:27 10° SE 23:06:17 35° ENE 23:10:07 10° N
NOSS 3-4 (C) 4.0 22:59:33 10° NW 23:06:32 87° SW 23:14:42 10° SSE
Meteor 2-17 Rocket 4.4 23:00:53 10° S 23:06:52 67° E 23:12:52 10° NNE
Cosmos 1602 2.7 23:05:42 10° S 23:08:27 76° E 23:11:11 10° N
Cosmos 2228 3.1 23:05:26 10° N 23:09:34 52° E 23:13:41 10° SSE
DNEPR-1 R/B 4.1 23:05:36 10° NNW 23:10:41 82° NE 23:16:52 10° SE
Resurs 1-3 3.5 23:07:17 10° SSE 23:11:33 73° ENE 23:15:52 10° N
Cosmos 1346 Rocket 2.7 23:08:35 10° S 23:12:05 51° E 23:15:38 10° NNE
SeaSat 1 2.5 23:07:34 10° SE 23:12:23 61° ENE 23:17:13 10° NNW
IRS-P3 4.4 23:07:06 10° S 23:12:25 78° WSW 23:17:46 10° NNW
COSMO-SKYMED 1 2.5 23:09:07 10° NNE 23:13:11 57° E 23:17:13 10° S
Cosmos 1844 Rocket 4.3 23:13:19 10° ESE 23:15:21 12° E 23:16:09 12° E
Cosmos 2150 Rocket 4.0 23:13:24 10° NNW 23:18:34 87° WSW 23:23:41 10° SSE
SL-8 R/B 4.4 23:18:44 10° SSW 23:23:06 38° SE 23:26:29 16° E
Cosmos 1782 2.5 23:21:11 10° N 23:24:43 58° E 23:28:14 10° SSE
SKYMED 2 4.2 23:20:32 10° N 23:24:49 59° WNW 23:29:05 10° SSW
Cosmos 2298 Rocket 4.2 23:20:48 10° NNW 23:26:06 80° WSW 23:31:24 10° SSE
RESURS DK-1 3.8 23:24:17 10° N 23:26:56 17° NE 23:27:49 16° ENE
Gbstr 26 Del rocket 4.3 23:20:34 10° WSW 23:27:04 78° NNW 23:34:27 11° NE
CRYOSAT 2 4.3 23:24:37 10° N 23:29:31 73° E 23:34:23 10° S
Tiangong -1.6 23:26:27 10° W 23:29:34 54° S 23:31:43 18° ESE
SJ-7 4.0 23:26:51 10° SSE 23:30:30 76° ENE 23:34:10 10° N
Cosmos 2034 Rocket 4.1 23:25:24 10° N 23:31:27 52° ENE 23:37:30 10° SSE
Cosmos 1072 Rocket 4.4 23:25:14 10° N 23:31:28 85° E 23:37:34 10° S
Cosmos 2297 Rocket 4.2 23:27:41 10° WSW 23:32:23 27° NW 23:37:08 10° N
Cosmos 1536 Rocket 4.4 23:29:38 10° SSE 23:33:20 28° E 23:37:05 10° NNE
Cosmos 2098 Rocket 3.8 23:31:05 10° NNE 23:33:20 20° ENE 23:33:20 20° ENE
USA 267 3.9 23:29:38 10° NE 23:35:58 54° NNW 23:42:17 10° WSW
Cosmos 2058 2.7 23:32:58 10° S 23:36:48 64° E 23:40:40 10° NNE
Cosmos 1943 4.0 23:32:57 10° N 23:37:56 30° NE 23:40:56 19° E
YAOGAN 3 4.4 23:33:52 10° SSE 23:38:01 63° ENE 23:42:11 10° N
Resurs 01 Rocket 1.5 23:37:13 10° SSE 23:41:34 66° ENE 23:45:57 10° N
Cosmos 1862 2.9 23:38:30 10° S 23:42:02 69° E 23:45:36 10° NNE
Helios 1A Rocket 2.7 23:49:22 34° ENE 23:50:04 38° E 23:53:07 10° S
Cosmos 2263 Rocket 2.6 23:45:33 10° SW 23:51:11 67° WNW 23:56:53 10° NNE
YAOGAN 1 3.9 23:48:44 10° S 23:52:44 41° W 23:56:47 10° NNW
Meteor 1-31 Rocket 4.4 23:55:38 17° NNE 23:55:38 17° NNE 23:56:47 10° NNE
Cosmos 1538 Rocket 4.1 23:49:09 10° S 23:54:20 53° ESE 23:59:33 10° NNE
